TimeEST,TemperatureF,Dew PointF,Humidity,Sea Level PressureIn,VisibilityMPH,Wind Direction,Wind SpeedMPH,Gust SpeedMPH,PrecipitationIn,Events,Conditions,WindDirDegrees,DateUTC
12:15 AM,60.8,60.8,100,29.53,10.0,SE,15.0,24.2,0.03,Rain,Light Rain,140,2012-12-21 05:15:00
12:35 AM,60.8,60.8,100,29.51,7.0,SSE,15.0,25.3,0.05,Rain,Rain,150,2012-12-21 05:35:00
12:55 AM,60.8,60.8,100,29.49,7.0,SSE,17.3,28.8,0.02,Rain,Rain,150,2012-12-21 05:55:00
1:15 AM,60.8,60.8,100,29.48,7.0,SSE,18.4,24.2,0.04,Rain,Light Rain,160,2012-12-21 06:15:00
1:35 AM,62.6,60.8,94,29.45,5.0,SSE,16.1,27.6,0.08,Rain,Rain,160,2012-12-21 06:35:00
1:55 AM,62.6,60.8,94,29.43,7.0,SSE,20.7,33.4,0.01,Rain,Rain,150,2012-12-21 06:55:00
2:15 AM,62.6,60.8,94,29.40,10.0,SSE,19.6,31.1,0.02,Rain,Rain,150,2012-12-21 07:15:00
2:35 AM,62.6,60.8,94,29.39,7.0,South,16.1,26.5,0.04,Rain,Light Rain,170,2012-12-21 07:35:00
2:55 AM,62.6,62.6,100,29.38,7.0,South,17.3,23.0,0.02,Rain,Rain,170,2012-12-21 07:55:00
3:15 AM,62.6,62.6,100,29.38,7.0,South,19.6,25.3,0.04,Rain,Rain,180,2012-12-21 08:15:00
3:35 AM,62.6,62.6,100,29.37,10.0,SSW,17.3,21.9,0.05,,Overcast,210,2012-12-21 08:35:00
3:55 AM,59.0,55.4,88,29.39,10.0,WSW,24.2,41.4,N/A,,Overcast,240,2012-12-21 08:55:00
4:15 AM,55.4,51.8,88,29.40,10.0,WSW,20.7,28.8,N/A,,Mostly Cloudy,240,2012-12-21 09:15:00
4:35 AM,55.4,48.2,77,29.41,10.0,WSW,19.6,26.5,N/A,,Overcast,240,2012-12-21 09:35:00
4:55 AM,53.6,46.4,77,29.41,10.0,WSW,15.0,23.0,N/A,,Scattered Clouds,240,2012-12-21 09:55:00
5:15 AM,53.6,44.6,72,29.42,10.0,SW,12.7,21.9,N/A,,Clear,230,2012-12-21 10:15:00
5:35 AM,53.6,44.6,72,29.42,10.0,SW,17.3,21.9,N/A,,Clear,230,2012-12-21 10:35:00
5:55 AM,51.8,44.6,76,29.43,10.0,SW,13.8,21.9,N/A,,Mostly Cloudy,230,2012-12-21 10:55:00
6:15 AM,51.8,44.6,76,29.43,10.0,SW,13.8,23.0,N/A,,Mostly Cloudy,230,2012-12-21 11:15:00
6:55 AM,50.0,39.2,66,29.46,10.0,WSW,23.0,28.8,N/A,,Overcast,250,2012-12-21 11:55:00
7:15 AM,48.2,37.4,66,29.48,10.0,West,23.0,31.1,N/A,,Overcast,260,2012-12-21 12:15:00
7:35 AM,48.2,35.6,62,29.49,10.0,West,17.3,28.8,N/A,,Overcast,260,2012-12-21 12:35:00
7:55 AM,46.4,33.8,62,29.50,10.0,West,19.6,31.1,N/A,,Overcast,270,2012-12-21 12:55:00
8:15 AM,46.4,33.8,62,29.51,10.0,WSW,13.8,24.2,N/A,,Overcast,250,2012-12-21 13:15:00
8:35 AM,46.4,32.0,57,29.51,10.0,WSW,20.7,27.6,N/A,,Overcast,250,2012-12-21 13:35:00
8:55 AM,46.4,32.0,57,29.52,10.0,West,19.6,25.3,N/A,,Overcast,260,2012-12-21 13:55:00
9:15 AM,46.4,32.0,57,29.53,10.0,WSW,17.3,24.2,N/A,,Overcast,250,2012-12-21 14:15:00
9:35 AM,46.4,32.0,57,29.54,10.0,West,17.3,26.5,N/A,,Overcast,260,2012-12-21 14:35:00
9:55 AM,46.4,30.2,53,29.54,10.0,WSW,19.6,28.8,N/A,,Overcast,250,2012-12-21 14:55:00
10:15 AM,46.4,30.2,53,29.54,10.0,West,16.1,24.2,N/A,,Overcast,260,2012-12-21 15:15:00
10:35 AM,46.4,30.2,53,29.54,10.0,WSW,17.3,26.5,N/A,,Overcast,240,2012-12-21 15:35:00
10:55 AM,46.4,30.2,53,29.53,10.0,West,23.0,29.9,N/A,,Mostly Cloudy,260,2012-12-21 15:55:00
11:15 AM,48.2,28.4,46,29.53,10.0,WSW,24.2,33.4,N/A,,Overcast,250,2012-12-21 16:15:00
11:35 AM,46.4,30.2,53,29.52,10.0,West,12.7,24.2,N/A,,Overcast,260,2012-12-21 16:35:00
11:55 AM,46.4,28.4,50,29.52,10.0,WSW,18.4,27.6,N/A,,Overcast,240,2012-12-21 16:55:00
12:15 PM,46.4,28.4,50,29.52,10.0,West,21.9,32.2,N/A,,Overcast,270,2012-12-21 17:15:00
12:35 PM,46.4,30.2,53,29.52,10.0,WSW,15.0,28.8,N/A,,Overcast,240,2012-12-21 17:35:00
12:55 PM,46.4,28.4,50,29.52,10.0,WSW,18.4,25.3,N/A,,Overcast,240,2012-12-21 17:55:00
1:15 PM,46.4,28.4,50,29.53,10.0,WSW,12.7,24.2,N/A,,Overcast,250,2012-12-21 18:15:00
1:35 PM,46.4,28.4,50,29.52,10.0,West,17.3,29.9,N/A,,Overcast,260,2012-12-21 18:35:00
1:55 PM,48.2,26.6,43,29.51,10.0,WSW,21.9,28.8,N/A,,Mostly Cloudy,250,2012-12-21 18:55:00
2:15 PM,46.4,26.6,46,29.51,10.0,WSW,20.7,26.5,N/A,,Mostly Cloudy,250,2012-12-21 19:15:00
2:35 PM,46.4,26.6,46,29.52,10.0,WSW,21.9,31.1,N/A,,Overcast,250,2012-12-21 19:35:00
2:55 PM,46.4,26.6,46,29.52,10.0,WSW,20.7,28.8,N/A,,Overcast,240,2012-12-21 19:55:00
3:15 PM,46.4,26.6,46,29.53,10.0,West,13.8,27.6,N/A,,Overcast,260,2012-12-21 20:15:00
3:35 PM,46.4,26.6,46,29.53,10.0,West,15.0,-,N/A,,Overcast,260,2012-12-21 20:35:00
3:55 PM,46.4,26.6,46,29.54,10.0,West,19.6,26.5,N/A,,Overcast,260,2012-12-21 20:55:00
4:15 PM,46.4,26.6,46,29.55,10.0,West,19.6,25.3,N/A,,Overcast,270,2012-12-21 21:15:00
4:35 PM,44.6,24.8,46,29.56,10.0,West,23.0,29.9,N/A,,Overcast,260,2012-12-21 21:35:00
4:55 PM,44.6,24.8,46,29.57,10.0,West,16.1,25.3,N/A,,Overcast,270,2012-12-21 21:55:00
5:15 PM,44.6,24.8,46,29.58,10.0,West,23.0,32.2,N/A,,Overcast,270,2012-12-21 22:15:00
5:35 PM,44.6,23.0,43,29.60,10.0,West,15.0,25.3,N/A,,Overcast,260,2012-12-21 22:35:00
5:55 PM,42.8,24.8,49,29.61,10.0,West,12.7,20.7,N/A,,Unknown,270,2012-12-21 22:55:00
6:15 PM,42.8,24.8,49,29.62,10.0,West,11.5,21.9,N/A,,Overcast,260,2012-12-21 23:15:00
6:35 PM,42.8,23.0,46,29.62,10.0,West,16.1,29.9,N/A,,Overcast,260,2012-12-21 23:35:00
6:55 PM,42.8,23.0,46,29.63,10.0,West,13.8,26.5,N/A,,Overcast,260,2012-12-21 23:55:00
7:15 PM,42.8,23.0,46,29.63,10.0,West,18.4,27.6,N/A,,Overcast,260,2012-12-22 00:15:00
7:35 PM,41.0,23.0,49,29.64,10.0,West,16.1,27.6,N/A,,Overcast,260,2012-12-22 00:35:00
7:55 PM,41.0,23.0,49,29.64,10.0,WSW,16.1,28.8,N/A,,Overcast,250,2012-12-22 00:55:00
8:15 PM,41.0,23.0,49,29.65,10.0,West,12.7,31.1,N/A,,Overcast,260,2012-12-22 01:15:00
8:35 PM,41.0,23.0,49,29.65,10.0,West,15.0,26.5,N/A,,Overcast,260,2012-12-22 01:35:00
8:55 PM,39.2,23.0,52,29.66,10.0,West,15.0,24.2,N/A,,Overcast,260,2012-12-22 01:55:00
9:15 PM,39.2,21.2,49,29.67,10.0,West,16.1,21.9,N/A,,Overcast,260,2012-12-22 02:15:00
9:35 PM,39.2,21.2,49,29.67,10.0,West,12.7,23.0,N/A,,Overcast,260,2012-12-22 02:35:00
9:55 PM,39.2,21.2,49,29.68,10.0,West,16.1,-,N/A,,Scattered Clouds,260,2012-12-22 02:55:00
10:15 PM,39.2,21.2,49,29.69,10.0,WSW,11.5,17.3,N/A,,Clear,250,2012-12-22 03:15:00
10:35 PM,39.2,21.2,49,29.69,10.0,West,15.0,23.0,N/A,,Clear,260,2012-12-22 03:35:00
10:55 PM,37.4,23.0,56,29.69,10.0,West,11.5,20.7,N/A,,Clear,260,2012-12-22 03:55:00
11:15 PM,37.4,21.2,52,29.70,10.0,WSW,10.4,19.6,N/A,,Clear,250,2012-12-22 04:15:00
11:35 PM,37.4,23.0,56,29.70,10.0,West,11.5,18.4,N/A,,Clear,260,2012-12-22 04:35:00
11:55 PM,37.4,23.0,56,29.70,10.0,West,13.8,20.7,N/A,,Clear,260,2012-12-22 04:55:00